RH
11 15 7 6 5 7 11 15 22 22 19 27 37 50 58 62 60 60 69 71 71 71 66 66 68 77 77 76 73 82 88 95 95 96 97 94 97 95 95 95 96 92 75 83
14 14 6 5 6 7 11 20 25 24 26 39 47 55 59 63 64 65 69 73 79 85 82 78 74 72 70 68 74 88 84 92 94 96 97 81 92 95 95 93 95 95 93 91
15 12 5 5 6 8 11 19 25 33 40 52 58 62 63 65 65 71 67 76 83 87 83 82 82 79 71 69 65 71 77 94 92 92 96 90 91 87 89 93 94 94 96 92
16 9 5 5 6 8 11 23 38 43 50 54 57 66 63 61 65 63 63 69 74 80 81 74 76 75 67 64 60 61 75 95 90 96 92 89 92 93 84 90 96 94 94 95
16 7 5 6 8 10 12 27 38 44 51 47 57 64 67 65 64 64 61 70 73 76 81 86 88 82 73 68 64 64 69 90 74 81 77 75 83 87 91 92 95 95 90 91
16 6 5 7 9 11 19 28 33 36 47 54 55 64 70 67 63 59 64 69 76 84 79 72 76 76 74 71 72 75 73 77 74 81 77 75 71 87 91 96 96 93 94 92
14 7 6 9 11 14 19 25 30 37 50 52 60 66 70 67 63 63 63 73 77 86 80 81 89 92 82 70 72 71 86 88 79 84 79 80 87 83 82 89 93 91 88 86
13 7 7 9 12 14 16 20 27 35 50 56 57 62 67 63 61 61 68 77 81 89 92 95 93 75 66 66 64 66 80 90 90 89 83 82 78 81 83 84 81 82 85 83
13 7 8 9 13 15 16 18 24 31 44 54 61 63 65 64 62 61 68 74 78 86 93 82 70 73 78 73 72 64 67 80 81 80 82 82 88 79 75 80 76 76 78 79
9 7 9 9 12 15 19 19 23 29 39 46 51 57 63 67 67 69 70 73 73 75 71 65 71 73 75 83 85 83 70 71 75 77 79 84 85 73 72 68 76 74 77 77
8 7 8 9 11 16 21 20 21 26 32 40 43 49 54 59 66 68 66 66 67 68 64 62 66 69 76 78 83 87 87 86 82 75 78 89 90 83 82 87 88 87 82 79
7 7 8 9 10 15 20 24 25 25 27 33 37 40 40 44 52 62 62 65 68 63 62 63 67 69 72 80 77 81 84 87 85 88 88 94 97 97 99 99 98 95 90 88
7 7 7 9 10 12 17 22 26 28 28 32 36 36 37 39 39 42 54 55 62 62 56 59 68 75 73 78 83 85 84 87 89 92 91 92 96 91 90 92 92 94 96 95
8 7 7 8 10 11 14 18 23 25 26 29 33 35 34 36 39 40 42 44 47 50 52 60 68 73 76 80 82 83 87 87 89 86 85 89 90 85 83 80 80 80 78 83
8 7 7 8 9 11 13 14 18 25 24 28 33 33 35 36 37 40 42 43 44 46 53 60 69 71 75 82 86 87 88 86 86 83 86 88 82 80 80 77 74 74 74 72
8 7 7 8 9 10 12 14 16 20 27 31 33 36 37 37 38 40 40 42 44 46 52 62 66 69 68 74 77 80 83 86 86 84 82 79 77 77 77 72 66 68 72 71
9 8 8 9 10 10 11 12 13 16 21 26 31 32 34 34 42 44 44 41 43 46 50 59 63 67 68 73 76 75 77 79 79 78 75 71 69 70 70 68 64 60 61 64
9 9 9 10 10 11 13 13 13 13 16 18 25 27 36 32 43 46 46 46 42 46 51 56 59 63 66 72 69 73 73 72 68 64 64 62 62 61 61 60 59 55 51 51
10 10 11 10 11 12 13 14 14 13 14 17 23 29 34 30 39 45 49 51 52 53 56 61 59 60 64 60 61 62 61 59 54 53 54 54 55 54 52 50 49 53 51 48
12 11 10 10 10 12 13 12 13 13 15 18 25 29 30 32 36 43 48 52 54 60 62 63 60 53 47 53 58 61 64 63 61 62 63 66 65 63 60 57 54 52 49 46
12 11 10 10 11 11 11 12 14 16 20 22 26 29 31 36 41 44 52 54 55 57 62 58 61 53 50 52 58 63 65 66 66 68 71 73 73 72 69 65 60 57 54 51
12 11 11 11 11 10 10 16 16 19 21 24 27 30 33 39 42 46 53 52 53 55 57 60 58 51 48 53 57 61 63 66 69 71 72 74 73 73 73 71 65 59 55 51
14 13 12 11 11 13 12 16 17 18 21 25 28 30 35 42 44 46 48 49 55 53 60 58 54 49 51 57 61 65 65 66 69 71 73 74 75 76 74 73 70 66 62 58
16 14 14 15 14 14 16 16 18 19 21 25 29 33 36 41 43 45 44 48 48 53 53 50 49 48 56 62 64 66 67 68 70 73 75 78 79 80 81 79 76 71 67 62
16 15 14 16 15 16 17 18 20 21 23 26 30 34 37 40 41 40 40 40 42 46 49 49 51 58 62 68 72 75 78 83 84 85 87 88 88 86 85 84 82 77 71 66
17 16 19 18 18 17 18 18 21 23 25 27 30 33 35 36 38 40 39 39 40 45 51 54 62 71 78 81 83 85 88 90 91 92 93 92 91 90 88 87 83 77 72 66
18 18 17 16 15 15 17 19 22 25 27 30 31 30 31 36 39 39 38 39 42 43 53 61 67 73 79 82 84 86 89 91 93 93 95 96 95 91 82 75 72 70 67 63